Weather History for KFMY - June, 2014

Change the Weather History Date:

Tuesday, June 10, 2014

  Actual Average Record
Temperature  
Mean Temperature 83 °F 82 °F  
Max Temperature 92 °F 92 °F 97 °F (1995)
Min Temperature 74 °F 73 °F 65 °F (1921)
Degree Days  
Heating Degree Days 0 0  
Month to date heating degree days 0 0  
Since 1 June heating degree days 0 0  
Since 1 July heating degree days 178 287  
Cooling Degree Days 18 17  
Month to date cooling degree days 170 170  
Year to date cooling degree days 1361 1236  
Since 1 June cooling degree days 170 170  
Growing Degree Days 32 (Base 50)    
Moisture  
Dew Point 72 °F    
Average Humidity 75    
Maximum Humidity 94    
Minimum Humidity 52    
Precipitation  
Precipitation 0.00 in 0.33 in 2.52 in (1912)
Month to date precipitation 0.18 2.70  
Year to date precipitation 11.52 14.50  
Sea Level Pressure  
Sea Level Pressure 30.00 in    
Wind  
Wind Speed 4 mph (SSE)    
Max Wind Speed 14 mph    
Max Gust Speed 20 mph    
Visibility 10 miles    
Events Thunderstorm    
T = Trace of Precipitation, MM = Missing Value Source: NWS Daily Summary

Daily Weather History Graph

Daily Weather History Graph

Search for Another Location

Airport or City:

Trip Planner

Search our weather history database for the weather conditions in past years. The results will help you decide how hot, cold, wet, or windy it might be!

Date:

Astronomy

Jun. 10, 2014 Rise Set
Actual Time 6:33 AM EDT 8:20 PM EDT
Civil Twilight 6:07 AM EDT 8:46 PM EDT
Nautical Twilight 5:35 AM EDT 9:18 PM EDT
Astronomical Twilight 5:02 AM EDT 9:51 PM EDT
Moon 5:56 PM EDT (6/10) 4:23 AM EDT (6/10)
Length of Visible Light 14h 39m
Length of Day
13h 46m
Waxing Gibbous, 92% of the Moon is Illuminated
Jun 10
Waxing Gibbous
Jun 13
Full
Jun 19
Last Quarter
Jun 27
New
Jul 5
First Quarter

Hourly Weather History & Observations

Time (EDT) Temp. Heat Index Dew Point Humidity Pressure Visibility Wind Dir Wind Speed Gust Speed Precip Events Conditions
12:53 AM 77.0 °F - 75.0 °F 94% 30.00 in 10.0 mi Calm Calm - N/A   Clear
1:53 AM 77.0 °F - 73.9 °F 90% 30.00 in 10.0 mi SSE 4.6 mph - N/A   Clear
2:53 AM 75.9 °F - 73.9 °F 94% 29.99 in 10.0 mi South 3.5 mph - N/A   Clear
3:53 AM 75.0 °F - 73.0 °F 94% 29.99 in 10.0 mi Calm Calm - N/A   Clear
4:53 AM 75.0 °F - 73.0 °F 94% 29.99 in 10.0 mi Calm Calm - N/A   Clear
5:53 AM 75.0 °F - 73.0 °F 94% 29.99 in 10.0 mi Calm Calm - N/A   Clear
6:53 AM 73.9 °F - 72.0 °F 93% 30.00 in 10.0 mi East 3.5 mph - N/A   Mostly Cloudy
7:50 AM 77.0 °F - 71.6 °F 83% 30.01 in 10.0 mi East 4.6 mph - N/A   Partly Cloudy
7:53 AM 77.0 °F - 72.0 °F 84% 30.02 in 10.0 mi East 4.6 mph - N/A   Partly Cloudy
8:53 AM 81.0 °F 86.2 °F 73.9 °F 79% 30.02 in 10.0 mi East 3.5 mph - N/A   Clear
9:53 AM 84.0 °F 90.2 °F 73.0 °F 69% 30.02 in 10.0 mi SE 3.5 mph - N/A   Clear
11:53 AM 89.1 °F 95.0 °F 71.1 °F 55% 30.03 in 10.0 mi South 8.1 mph - N/A   Partly Cloudy
12:53 PM 90.0 °F 95.4 °F 70.0 °F 52% 30.01 in 10.0 mi Variable 6.9 mph - N/A   Scattered Clouds
1:28 PM 88.0 °F 93.8 °F 71.1 °F 57% 30.00 in 10.0 mi WSW 11.5 mph - N/A Thunderstorm Mostly Cloudy
1:53 PM 86.0 °F 90.7 °F 70.0 °F 59% 30.01 in 10.0 mi South 10.4 mph - N/A Thunderstorm Mostly Cloudy
2:01 PM 86.0 °F 92.2 °F 72.0 °F 63% 30.00 in 10.0 mi SSW 10.4 mph - N/A Thunderstorm Thunderstorm
2:16 PM 84.9 °F 91.4 °F 73.0 °F 67% 30.01 in 10.0 mi SSW 11.5 mph - N/A Thunderstorm Mostly Cloudy
3:11 PM 79.0 °F - 72.0 °F 79% 30.01 in 10.0 mi SSE 9.2 mph - N/A   Mostly Cloudy
3:53 PM 78.1 °F - 72.0 °F 81% 30.01 in 10.0 mi SSE 8.1 mph - N/A   Scattered Clouds
5:53 PM 84.0 °F 89.6 °F 72.0 °F 67% 29.97 in 10.0 mi SSE 6.9 mph - N/A   Clear
6:53 PM 84.0 °F 89.6 °F 72.0 °F 67% 29.99 in 10.0 mi Variable 4.6 mph - N/A   Clear
7:53 PM 84.0 °F 89.0 °F 71.1 °F 65% 30.01 in 10.0 mi South 4.6 mph - N/A   Partly Cloudy
8:29 PM 82.9 °F 87.5 °F 71.1 °F 67% 30.00 in 10.0 mi South 3.5 mph - N/A Thunderstorm Clear
8:53 PM 81.0 °F 85.2 °F 72.0 °F 74% 30.01 in 10.0 mi East 4.6 mph - N/A Thunderstorm Clear
9:13 PM 80.1 °F 83.8 °F 72.0 °F 76% 30.00 in 10.0 mi SE 5.8 mph - N/A   Mostly Cloudy
9:32 PM 80.1 °F 81.5 °F 63.0 °F 56% 30.01 in 10.0 mi SSE 6.9 mph - N/A   Overcast
9:53 PM 79.0 °F - 64.0 °F 60% 30.01 in 10.0 mi Calm Calm - N/A   Partly Cloudy
11:53 PM 77.0 °F - 70.0 °F 79% 30.02 in 10.0 mi Calm Calm - N/A   Clear